Orbital Elements at Epoch 2459200.5 (2020-Dec-17.0) TDB
Reference: JPL 31 (heliocentric ecliptic J2000)
Element | Value | Uncertainty (1-sigma) | Units |
e | .2402726867657038 | 3.6031e-08 | |
a | 3.951725732340685 | 2.4317e-08 | au |
q | 3.00223397327002 | 1.4618e-07 | au |
i | 4.901056053483263 | 4.5408e-06 | deg |
node | 209.127515334918 | 4.7787e-05 | deg |
peri | 210.1940522334411 | 4.8848e-05 | deg |
M | 12.08648572135085 | 8.4991e-06 | deg |
tp | 2459104.166761199798 (2020-Sep-11.66676120) | 6.7513e-05 | TDB |
period | 2869.317580610749 7.86 | 2.6484e-05 7.251e-08 | d yr |
n | .1254653728233778 | 1.1581e-09 | deg/d |
Q | 4.901217491411349 | 3.016e-08 | au |
|
| | Orbit Determination Parameters
Additional Information
|